When you browse on this site, cookies collect data to enhance your experience and personalize the content and advertising you see.
Visit our Privacy Policy to learn more. By continuing to use the site, you agree to this use of cookies and data.

Hourly Weather Bima

Today, 6 July, Monday

Time Temperature Precipitation Wind Pressure Humidity
00:00 +20°C° 0 mm 2 mps 749 mmHg 91%
01:00 +20°C° 0 mm 2 mps 749 mmHg 92%
02:00 +20°C° 0 mm 2 mps 749 mmHg 92%
03:00 +20°C° 0 mm 2 mps 749 mmHg 93%
04:00 +22°C° 0 mm 1 mps 749 mmHg 90%
05:00 +22°C° 0 mm 1 mps 749 mmHg 88%
06:00 +23°C° 0 mm 1 mps 749 mmHg 86%
07:00 +25°C° 0 mm 1 mps 749 mmHg 82%
08:00 +26°C° 0 mm 2 mps 749 mmHg 77%
09:00 +27°C° 0 mm 2 mps 749 mmHg 72%
10:00 +28°C° 0.9 mm 2 mps 749 mmHg 71%
11:00 +28°C° 0.9 mm 3 mps 749 mmHg 69%
12:00 +29°C° 0.9 mm 3 mps 749 mmHg 67%
13:00 +29°C° 0.6 mm 3 mps 749 mmHg 67%
14:00 +29°C° 0.6 mm 3 mps 749 mmHg 67%
15:00 +29°C° 0.6 mm 3 mps 749 mmHg 67%
16:00 +29°C° 0.4 mm 2 mps 749 mmHg 70%
17:00 +29°C° 0.4 mm 2 mps 749 mmHg 74%
18:00 +28°C° 0.4 mm 2 mps 749 mmHg 77%
19:00 +26°C° 0.2 mm 1 mps 749 mmHg 81%
20:00 +25°C° 0.2 mm 1 mps 749 mmHg 84%
21:00 +23°C° 0.2 mm 1 mps 750 mmHg 88%
22:00 +23°C° 0.1 mm 1 mps 750 mmHg 88%
23:00 +22°C° 0.1 mm 1 mps 750 mmHg 88%

Tomorrow, 7 July, Tuesday

Time Temperature Precipitation Wind Pressure Humidity
00:00 +20°C° 0.1 mm 0 mps 750 mmHg 88%
01:00 +19°C° 0 mm 0 mps 750 mmHg 88%
02:00 +19°C° 0 mm 0 mps 750 mmHg 88%
03:00 +19°C° 0 mm 0 mps 751 mmHg 88%
04:00 +22°C° 0 mm 1 mps 751 mmHg 87%
05:00 +23°C° 0 mm 1 mps 751 mmHg 85%
06:00 +24°C° 0 mm 1 mps 751 mmHg 83%
07:00 +25°C° 0 mm 1 mps 751 mmHg 79%
08:00 +26°C° 0 mm 1 mps 751 mmHg 75%
09:00 +27°C° 0 mm 2 mps 751 mmHg 71%
10:00 +28°C° 0 mm 2 mps 751 mmHg 67%
11:00 +29°C° 0 mm 2 mps 751 mmHg 64%
12:00 +29°C° 0 mm 2 mps 751 mmHg 61%
13:00 +30°C° 0 mm 1 mps 751 mmHg 60%
14:00 +30°C° 0 mm 1 mps 751 mmHg 59%
15:00 +30°C° 0 mm 1 mps 751 mmHg 59%
16:00 +30°C° 0 mm 1 mps 751 mmHg 63%
17:00 +30°C° 0 mm 1 mps 751 mmHg 67%
18:00 +29°C° 0 mm 1 mps 751 mmHg 71%
19:00 +28°C° 0 mm 1 mps 751 mmHg 73%
20:00 +26°C° 0 mm 2 mps 751 mmHg 76%
21:00 +24°C° 0 mm 2 mps 751 mmHg 78%
22:00 +24°C° 0 mm 2 mps 751 mmHg 80%
23:00 +23°C° 0 mm 2 mps 751 mmHg 83%

Day after tomorrow, 8 July, Wednesday

Time Temperature Precipitation Wind Pressure Humidity
00:00 +23°C° 0 mm 2 mps 752 mmHg 85%
01:00 +21°C° 0 mm 2 mps 752 mmHg 86%
02:00 +21°C° 0 mm 2 mps 752 mmHg 88%
03:00 +21°C° 0 mm 2 mps 752 mmHg 89%
04:00 +23°C° 0 mm 2 mps 752 mmHg 87%
05:00 +24°C° 0 mm 3 mps 752 mmHg 86%
06:00 +24°C° 0 mm 3 mps 752 mmHg 84%
07:00 +26°C° 0 mm 3 mps 752 mmHg 81%
08:00 +27°C° 0 mm 3 mps 752 mmHg 78%
09:00 +28°C° 0 mm 3 mps 752 mmHg 75%
10:00 +29°C° 0 mm 3 mps 752 mmHg 72%
11:00 +30°C° 0 mm 4 mps 752 mmHg 69%
12:00 +32°C° 0 mm 4 mps 752 mmHg 65%
13:00 +32°C° 0 mm 4 mps 752 mmHg 65%
14:00 +33°C° 0 mm 4 mps 752 mmHg 64%
15:00 +33°C° 0 mm 4 mps 752 mmHg 64%
16:00 +32°C° 0 mm 4 mps 752 mmHg 67%
17:00 +31°C° 0 mm 3 mps 752 mmHg 71%
18:00 +30°C° 0 mm 3 mps 752 mmHg 75%
19:00 +29°C° 0 mm 3 mps 752 mmHg 79%
20:00 +27°C° 0 mm 3 mps 752 mmHg 83%
21:00 +26°C° 0 mm 3 mps 752 mmHg 87%
22:00 +25°C° 0 mm 3 mps 752 mmHg 89%
23:00 +25°C° 0 mm 3 mps 752 mmHg 90%

9 July, Thursday

Time Temperature Precipitation Wind Pressure Humidity
00:00 +24°C° 0 mm 3 mps 752 mmHg 91%
01:00 +22°C° 0 mm 3 mps 752 mmHg 91%
02:00 +22°C° 0 mm 3 mps 752 mmHg 91%
03:00 +21°C° 0 mm 3 mps 752 mmHg 92%
04:00 +22°C° 0 mm 3 mps 752 mmHg 89%
05:00 +24°C° 0 mm 3 mps 752 mmHg 86%
06:00 +25°C° 0 mm 4 mps 752 mmHg 84%
07:00 +26°C° 0 mm 4 mps 752 mmHg 80%
08:00 +27°C° 0 mm 4 mps 752 mmHg 76%
09:00 +28°C° 0 mm 4 mps 752 mmHg 72%
10:00 +29°C° 0 mm 5 mps 752 mmHg 69%
11:00 +30°C° 0 mm 5 mps 752 mmHg 65%
12:00 +32°C° 0 mm 5 mps 752 mmHg 62%
13:00 +32°C° 0.1 mm 6 mps 752 mmHg 62%
14:00 +32°C° 0.1 mm 6 mps 751 mmHg 62%
15:00 +32°C° 0.1 mm 6 mps 751 mmHg 62%
16:00 +30°C° 0.1 mm 5 mps 751 mmHg 66%
17:00 +29°C° 0.1 mm 5 mps 751 mmHg 70%
18:00 +28°C° 0.1 mm 5 mps 751 mmHg 74%
19:00 +27°C° 0 mm 5 mps 750 mmHg 74%
20:00 +27°C° 0 mm 5 mps 750 mmHg 75%
21:00 +26°C° 0 mm 5 mps 750 mmHg 76%
22:00 +25°C° 0 mm 5 mps 750 mmHg 76%
23:00 +25°C° 0 mm 5 mps 750 mmHg 75%

10 July, Friday

Time Temperature Precipitation Wind Pressure Humidity
00:00 +25°C° 0 mm 5 mps 749 mmHg 75%
01:00 +23°C° 0 mm 5 mps 749 mmHg 74%
02:00 +23°C° 0 mm 5 mps 749 mmHg 73%
03:00 +23°C° 0 mm 4 mps 749 mmHg 72%
04:00 +23°C° 0 mm 5 mps 749 mmHg 74%
05:00 +23°C° 0 mm 5 mps 749 mmHg 75%
06:00 +23°C° 0 mm 6 mps 749 mmHg 76%
07:00 +25°C° 0 mm 5 mps 749 mmHg 75%
08:00 +25°C° 0 mm 5 mps 749 mmHg 74%
09:00 +26°C° 0 mm 5 mps 749 mmHg 74%
10:00 +27°C° 0 mm 5 mps 749 mmHg 72%
11:00 +27°C° 0 mm 4 mps 750 mmHg 71%
12:00 +27°C° 0 mm 4 mps 750 mmHg 70%
13:00 +26°C° 0.2 mm 4 mps 750 mmHg 74%
14:00 +25°C° 0.2 mm 4 mps 750 mmHg 79%
15:00 +24°C° 0.2 mm 3 mps 750 mmHg 83%
16:00 +22°C° 0.4 mm 4 mps 751 mmHg 84%
17:00 +22°C° 0.4 mm 4 mps 751 mmHg 85%
18:00 +21°C° 0.4 mm 5 mps 751 mmHg 86%
19:00 +20°C° 0.2 mm 5 mps 752 mmHg 87%
20:00 +17°C° 0.2 mm 5 mps 752 mmHg 87%
21:00 +16°C° 0.2 mm 5 mps 753 mmHg 87%
22:00 +15°C° 0 mm 5 mps 753 mmHg 87%
23:00 +14°C° 0 mm 5 mps 754 mmHg 87%

11 July, Saturday

Time Temperature Precipitation Wind Pressure Humidity
00:00 +14°C° 0 mm 5 mps 754 mmHg 87%
01:00 +13°C° 0 mm 5 mps 754 mmHg 86%
02:00 +13°C° 0 mm 5 mps 755 mmHg 85%
03:00 +13°C° 0 mm 5 mps 755 mmHg 84%
04:00 +13°C° 0 mm 5 mps 755 mmHg 83%
05:00 +14°C° 0 mm 5 mps 755 mmHg 81%
06:00 +14°C° 0 mm 5 mps 755 mmHg 80%
07:00 +15°C° 0 mm 5 mps 756 mmHg 76%
08:00 +17°C° 0 mm 5 mps 756 mmHg 73%
09:00 +19°C° 0 mm 6 mps 756 mmHg 69%
10:00 +20°C° 0 mm 6 mps 756 mmHg 67%
11:00 +21°C° 0 mm 6 mps 756 mmHg 65%
12:00 +22°C° 0 mm 6 mps 756 mmHg 62%
13:00 +22°C° 0 mm 6 mps 756 mmHg 62%
14:00 +22°C° 0 mm 5 mps 756 mmHg 61%
15:00 +23°C° 0 mm 5 mps 756 mmHg 61%
16:00 +22°C° 0 mm 5 mps 756 mmHg 65%
17:00 +22°C° 0 mm 4 mps 756 mmHg 69%
18:00 +22°C° 0 mm 3 mps 756 mmHg 73%
19:00 +20°C° 0 mm 3 mps 756 mmHg 76%
20:00 +19°C° 0 mm 3 mps 756 mmHg 80%
21:00 +17°C° 0 mm 2 mps 755 mmHg 84%
22:00 +17°C° 0 mm 2 mps 755 mmHg 84%
23:00 +16°C° 0 mm 3 mps 755 mmHg 85%
Show more